Location: The Saddle
(36.8333°N, 80.3417°W)
Time: 10:06:46
(UTC-05:00)

S-56A Canister/Altair - Pass Details

Date: 17 December 2023
Orbit: 640 x 2488 km, 38.9° (Epoch: 25 February)

Event Time Altitude Azimuth Distance (km) Brightness Sun altitude
Rises 09:48:26 0° 268° (W) 4,363 11.1 20.3°
Reaches altitude 10° 09:51:52 10° 270° (W) 3,098 10.4 20.7°
Maximum altitude 09:59:00 74° 355° (N) 912 8.1 21.5°
Drops below altitude 10° 10:04:02 10° 81° (E) 2,212 10.3 22.1°
Sets 10:06:09 0° 83° (E) 3,035 10.9 22.3°
